Year,Month,Day,Hour,Minute,Value (Times are PST for windgust in km/hr)
2011,07,05,00,05,1.60
2011,07,05,00,06,1.60
2011,07,05,00,07,1.60
2011,07,05,00,13,1.60
2011,07,05,00,26,3.20
2011,07,05,00,27,3.20
2011,07,05,00,28,1.60
2011,07,05,00,31,3.20
2011,07,05,00,58,1.60
2011,07,05,01,06,1.60
2011,07,05,01,11,1.60
2011,07,05,01,24,1.60
2011,07,05,01,25,1.60
2011,07,05,01,31,3.20
2011,07,05,01,32,3.20
2011,07,05,01,33,3.20
2011,07,05,01,34,3.20
2011,07,05,01,35,1.60
2011,07,05,01,37,1.60
2011,07,05,01,38,1.60
2011,07,05,01,39,1.60
2011,07,05,01,41,1.60
2011,07,05,01,42,1.60
2011,07,05,01,44,1.60
2011,07,05,01,46,1.60
2011,07,05,01,48,1.60
2011,07,05,01,49,1.60
2011,07,05,01,50,1.60
2011,07,05,01,51,3.20
2011,07,05,01,56,1.60
2011,07,05,01,57,1.60
2011,07,05,01,58,1.60
2011,07,05,01,59,1.60
2011,07,05,02,00,3.20
2011,07,05,02,01,3.20
2011,07,05,02,04,1.60
2011,07,05,02,05,3.20
2011,07,05,02,08,3.20
2011,07,05,02,10,1.60
2011,07,05,02,12,1.60
2011,07,05,02,13,3.20
2011,07,05,02,14,1.60
2011,07,05,02,17,1.60
2011,07,05,02,25,1.60
2011,07,05,02,32,1.60
2011,07,05,02,42,3.20
2011,07,05,02,43,1.60
2011,07,05,02,44,1.60
2011,07,05,02,45,1.60
2011,07,05,02,49,1.60
2011,07,05,02,53,3.20
2011,07,05,02,54,1.60
2011,07,05,03,00,1.60
2011,07,05,03,01,1.60
2011,07,05,04,22,1.60
2011,07,05,04,23,1.60
2011,07,05,05,45,3.20
2011,07,05,05,46,3.20
2011,07,05,05,47,3.20
2011,07,05,05,48,3.20
2011,07,05,05,49,3.20
2011,07,05,05,50,3.20
2011,07,05,05,53,1.60
2011,07,05,05,54,3.20
2011,07,05,05,55,1.60
2011,07,05,06,00,3.20
2011,07,05,06,01,3.20
2011,07,05,06,02,1.60
2011,07,05,06,12,1.60
2011,07,05,06,54,1.60
2011,07,05,06,55,1.60
2011,07,05,06,57,1.60
2011,07,05,06,58,3.20
2011,07,05,06,59,3.20
2011,07,05,07,00,3.20
2011,07,05,07,01,3.20
2011,07,05,07,02,3.20
2011,07,05,07,03,1.60
2011,07,05,07,05,4.80
2011,07,05,07,06,3.20
2011,07,05,07,07,3.20
2011,07,05,07,08,3.20
2011,07,05,07,09,1.60
2011,07,05,07,10,3.20
2011,07,05,07,11,1.60
2011,07,05,07,17,1.60
2011,07,05,07,18,1.60
2011,07,05,07,19,1.60
2011,07,05,07,20,1.60
2011,07,05,07,22,3.20
2011,07,05,07,23,3.20
2011,07,05,07,24,1.60
2011,07,05,07,25,1.60
2011,07,05,07,36,1.60
2011,07,05,07,37,3.20
2011,07,05,07,38,3.20
2011,07,05,07,39,1.60
2011,07,05,07,40,3.20
2011,07,05,07,41,4.80
2011,07,05,07,42,6.40
2011,07,05,07,43,3.20
2011,07,05,07,44,3.20
2011,07,05,07,45,9.60
2011,07,05,07,46,9.60
2011,07,05,07,47,8.10
2011,07,05,07,48,6.40
2011,07,05,07,49,6.40
2011,07,05,07,50,8.10
2011,07,05,07,51,6.40
2011,07,05,07,52,6.40
2011,07,05,07,53,8.10
2011,07,05,07,54,8.10
2011,07,05,07,55,6.40
2011,07,05,07,56,6.40
2011,07,05,07,57,6.40
2011,07,05,07,58,8.10
2011,07,05,07,59,8.10
2011,07,05,08,00,8.10
2011,07,05,08,01,9.60
2011,07,05,08,02,4.80
2011,07,05,08,03,6.40
2011,07,05,08,04,6.40
2011,07,05,08,05,9.60
2011,07,05,08,06,8.10
2011,07,05,08,07,6.40
2011,07,05,08,08,8.10
2011,07,05,08,09,8.10
2011,07,05,08,10,8.10
2011,07,05,08,11,6.40
2011,07,05,08,12,6.40
2011,07,05,08,13,6.40
2011,07,05,08,14,8.10
2011,07,05,08,15,4.80
2011,07,05,08,16,8.10
2011,07,05,08,17,6.40
2011,07,05,08,18,6.40
2011,07,05,08,19,9.60
2011,07,05,08,20,9.60
2011,07,05,08,21,4.80
2011,07,05,08,22,6.40
2011,07,05,08,23,8.10
2011,07,05,08,24,8.10
2011,07,05,08,25,9.60
2011,07,05,08,26,8.10
2011,07,05,08,27,9.60
2011,07,05,08,28,8.10
2011,07,05,08,29,8.10
2011,07,05,08,30,8.10
2011,07,05,08,31,11.30
2011,07,05,08,32,9.60
2011,07,05,08,33,9.60
2011,07,05,08,34,6.40
2011,07,05,08,35,1.60
2011,07,05,08,36,8.10
2011,07,05,08,37,6.40
2011,07,05,08,38,3.20
2011,07,05,08,39,4.80
2011,07,05,08,40,4.80
2011,07,05,08,41,6.40
2011,07,05,08,42,1.60
2011,07,05,08,43,3.20
2011,07,05,08,44,4.80
2011,07,05,08,45,4.80
2011,07,05,08,46,6.40
2011,07,05,08,47,6.40
2011,07,05,08,48,4.80
2011,07,05,08,49,3.20
2011,07,05,08,50,1.60
2011,07,05,08,51,6.40
2011,07,05,08,52,6.40
2011,07,05,08,53,6.40
2011,07,05,08,54,6.40
2011,07,05,08,55,8.10
2011,07,05,08,56,6.40
2011,07,05,08,57,6.40
2011,07,05,08,58,4.80
2011,07,05,08,59,4.80
2011,07,05,09,00,6.40
2011,07,05,09,01,8.10
2011,07,05,09,02,8.10
2011,07,05,09,03,6.40
2011,07,05,09,04,8.10
2011,07,05,09,05,11.30
2011,07,05,09,06,11.30
2011,07,05,09,07,9.60
2011,07,05,09,08,11.30
2011,07,05,09,09,8.10
2011,07,05,09,10,9.60
2011,07,05,09,11,8.10
2011,07,05,09,12,9.60
2011,07,05,09,13,9.60
2011,07,05,09,14,9.60
2011,07,05,09,15,11.30
2011,07,05,09,16,11.30
2011,07,05,09,17,8.10
2011,07,05,09,18,9.60
2011,07,05,09,19,6.40
2011,07,05,09,20,8.10
2011,07,05,09,21,8.10
2011,07,05,09,22,9.60
2011,07,05,09,23,9.60
2011,07,05,09,24,6.40
2011,07,05,09,25,8.10
2011,07,05,09,26,8.10
2011,07,05,09,27,6.40
2011,07,05,09,28,4.80
2011,07,05,09,29,6.40
2011,07,05,09,30,6.40
2011,07,05,09,31,4.80
2011,07,05,09,32,4.80
2011,07,05,09,33,9.60
2011,07,05,09,34,8.10
2011,07,05,09,35,6.40
2011,07,05,09,36,9.60
2011,07,05,09,37,9.60
2011,07,05,09,38,9.60
2011,07,05,09,39,9.60
2011,07,05,09,40,8.10
2011,07,05,09,41,8.10
2011,07,05,09,42,9.60
2011,07,05,09,43,8.10
2011,07,05,09,44,6.40
2011,07,05,09,45,8.10
2011,07,05,09,46,8.10
2011,07,05,09,47,6.40
2011,07,05,09,48,8.10
2011,07,05,09,49,9.60
2011,07,05,09,50,9.60
2011,07,05,09,51,9.60
2011,07,05,09,52,9.60
2011,07,05,09,53,9.60
2011,07,05,09,54,8.10
2011,07,05,09,55,9.60
2011,07,05,09,56,8.10
2011,07,05,09,57,8.10
2011,07,05,09,58,8.10
2011,07,05,09,59,6.40
2011,07,05,10,00,4.80
2011,07,05,10,01,8.10
2011,07,05,10,02,8.10
2011,07,05,10,03,4.80
2011,07,05,10,04,6.40
2011,07,05,10,05,6.40
2011,07,05,10,06,8.10
2011,07,05,10,07,8.10
2011,07,05,10,08,6.40
2011,07,05,10,09,6.40
2011,07,05,10,10,8.10
2011,07,05,10,11,8.10
2011,07,05,10,12,6.40
2011,07,05,10,13,6.40
2011,07,05,10,14,9.60
2011,07,05,10,15,6.40
2011,07,05,10,16,8.10
2011,07,05,10,17,6.40
2011,07,05,10,18,6.40
2011,07,05,10,19,6.40
2011,07,05,10,20,6.40
2011,07,05,10,21,4.80
2011,07,05,10,22,6.40
2011,07,05,10,23,8.10
2011,07,05,10,24,8.10
2011,07,05,10,25,8.10
2011,07,05,10,26,6.40
2011,07,05,10,27,6.40
2011,07,05,10,28,6.40
2011,07,05,10,29,9.60
2011,07,05,10,30,8.10
2011,07,05,10,31,6.40
2011,07,05,10,32,9.60
2011,07,05,10,33,8.10
2011,07,05,10,34,8.10
2011,07,05,10,35,4.80
2011,07,05,10,36,4.80
2011,07,05,10,37,6.40
2011,07,05,10,38,9.60
2011,07,05,10,39,8.10
2011,07,05,10,40,9.60
2011,07,05,10,41,8.10
2011,07,05,10,42,6.40
2011,07,05,10,43,6.40
2011,07,05,10,44,8.10
2011,07,05,10,45,8.10
2011,07,05,10,46,8.10
2011,07,05,10,47,8.10
2011,07,05,10,48,6.40
2011,07,05,10,49,8.10
2011,07,05,10,50,6.40
2011,07,05,10,51,9.60
2011,07,05,10,52,8.10
2011,07,05,10,53,9.60
2011,07,05,10,54,6.40
2011,07,05,10,55,6.40
2011,07,05,10,56,6.40
2011,07,05,10,57,8.10
2011,07,05,10,58,8.10
2011,07,05,10,59,9.60
2011,07,05,11,00,6.40
2011,07,05,11,01,4.80
2011,07,05,11,02,8.10
2011,07,05,11,03,9.60
2011,07,05,11,04,9.60
2011,07,05,11,05,8.10
2011,07,05,11,06,8.10
2011,07,05,11,07,6.40
2011,07,05,11,08,8.10
2011,07,05,11,09,8.10
2011,07,05,11,10,8.10
2011,07,05,11,11,9.60
2011,07,05,11,12,8.10
2011,07,05,11,13,11.30
2011,07,05,11,14,9.60
2011,07,05,11,15,11.30
2011,07,05,11,16,9.60
2011,07,05,11,17,9.60
2011,07,05,11,18,6.40
2011,07,05,11,19,11.30
2011,07,05,11,20,11.30
2011,07,05,11,21,9.60
2011,07,05,11,22,9.60
2011,07,05,11,23,9.60
2011,07,05,11,24,9.60
2011,07,05,11,25,8.10
2011,07,05,11,26,6.40
2011,07,05,11,27,8.10
2011,07,05,11,28,9.60
2011,07,05,11,29,9.60
2011,07,05,11,30,8.10
2011,07,05,11,31,9.60
2011,07,05,11,32,9.60
2011,07,05,11,33,9.60
2011,07,05,11,34,8.10
2011,07,05,11,35,8.10
2011,07,05,11,36,11.30
2011,07,05,11,37,11.30
2011,07,05,11,38,9.60
2011,07,05,11,39,9.60
2011,07,05,11,40,9.60
2011,07,05,11,41,6.40
2011,07,05,11,42,11.30
2011,07,05,11,43,11.30
2011,07,05,11,44,9.60
2011,07,05,11,45,9.60
2011,07,05,11,46,11.30
2011,07,05,11,47,11.30
2011,07,05,11,48,8.10
2011,07,05,11,49,8.10
2011,07,05,11,50,6.40
2011,07,05,11,51,8.10
2011,07,05,11,52,8.10
2011,07,05,11,53,6.40
2011,07,05,11,54,6.40
2011,07,05,11,55,6.40
2011,07,05,11,56,4.80
2011,07,05,11,57,4.80
2011,07,05,11,58,6.40
2011,07,05,11,59,6.40
2011,07,05,12,00,8.10
2011,07,05,12,01,8.10
2011,07,05,12,02,8.10
2011,07,05,12,03,6.40
2011,07,05,12,04,8.10
2011,07,05,12,05,8.10
2011,07,05,12,06,6.40
2011,07,05,12,07,8.10
2011,07,05,12,08,6.40
2011,07,05,12,09,9.60
2011,07,05,12,10,6.40
2011,07,05,12,11,8.10
2011,07,05,12,12,8.10
2011,07,05,12,13,9.60
2011,07,05,12,14,6.40
2011,07,05,12,15,9.60
2011,07,05,12,16,8.10
2011,07,05,12,17,9.60
2011,07,05,12,18,12.90
2011,07,05,12,19,12.90
2011,07,05,12,20,8.10
2011,07,05,12,21,6.40
2011,07,05,12,22,11.30
2011,07,05,12,23,8.10
2011,07,05,12,24,6.40
2011,07,05,12,25,11.30
2011,07,05,12,26,11.30
2011,07,05,12,27,9.60
2011,07,05,12,28,8.10
2011,07,05,12,29,9.60
2011,07,05,12,30,9.60
2011,07,05,12,31,11.30
2011,07,05,12,32,11.30
2011,07,05,12,33,11.30
2011,07,05,12,34,11.30
2011,07,05,12,35,9.60
2011,07,05,12,36,9.60
2011,07,05,12,37,8.10
2011,07,05,12,38,9.60
2011,07,05,12,39,8.10
2011,07,05,12,40,6.40
2011,07,05,12,41,6.40
2011,07,05,12,42,6.40
2011,07,05,12,43,8.10
2011,07,05,12,44,8.10
2011,07,05,12,45,8.10
2011,07,05,12,46,8.10
2011,07,05,12,47,8.10
2011,07,05,12,48,6.40
2011,07,05,12,49,6.40
2011,07,05,12,50,9.60
2011,07,05,12,51,6.40
2011,07,05,12,52,8.10
2011,07,05,12,53,8.10
2011,07,05,12,54,6.40
2011,07,05,12,55,16.10
2011,07,05,12,56,11.30
2011,07,05,12,57,9.60
2011,07,05,12,58,11.30
2011,07,05,12,59,11.30
2011,07,05,13,00,9.60
2011,07,05,13,01,11.30
2011,07,05,13,02,11.30
2011,07,05,13,03,11.30
2011,07,05,13,04,11.30
2011,07,05,13,05,8.10
2011,07,05,13,06,9.60
2011,07,05,13,07,11.30
2011,07,05,13,08,11.30
2011,07,05,13,09,9.60
2011,07,05,13,10,9.60
2011,07,05,13,11,9.60
2011,07,05,13,12,6.40
2011,07,05,13,13,4.80
2011,07,05,13,14,6.40
2011,07,05,13,15,8.10
2011,07,05,13,16,8.10
2011,07,05,13,17,8.10
2011,07,05,13,18,9.60
2011,07,05,13,19,8.10
2011,07,05,13,20,9.60
2011,07,05,13,21,11.30
2011,07,05,13,22,8.10
2011,07,05,13,23,8.10
2011,07,05,13,24,8.10
2011,07,05,13,25,4.80
2011,07,05,13,26,8.10
2011,07,05,13,27,6.40
2011,07,05,13,28,6.40
2011,07,05,13,29,6.40
2011,07,05,13,30,4.80
2011,07,05,13,31,4.80
2011,07,05,13,32,4.80
2011,07,05,13,33,8.10
2011,07,05,13,34,6.40
2011,07,05,13,35,8.10
2011,07,05,13,36,11.30
2011,07,05,13,37,9.60
2011,07,05,13,38,9.60
2011,07,05,13,39,11.30
2011,07,05,13,40,12.90
2011,07,05,13,41,14.50
2011,07,05,13,42,11.30
2011,07,05,13,43,12.90
2011,07,05,13,44,14.50
2011,07,05,13,45,17.70
2011,07,05,13,46,9.60
2011,07,05,13,47,14.50
2011,07,05,13,48,12.90
2011,07,05,13,49,11.30
2011,07,05,13,50,14.50
2011,07,05,13,51,11.30
2011,07,05,13,52,9.60
2011,07,05,13,53,11.30
2011,07,05,13,54,14.50
2011,07,05,13,55,8.10
2011,07,05,13,56,6.40
2011,07,05,13,57,9.60
2011,07,05,13,58,9.60
2011,07,05,13,59,16.10
2011,07,05,14,00,9.60
2011,07,05,14,01,9.60
2011,07,05,14,02,11.30
2011,07,05,14,03,9.60
2011,07,05,14,04,12.90
2011,07,05,14,05,16.10
2011,07,05,14,06,8.10
2011,07,05,14,07,8.10
2011,07,05,14,08,6.40
2011,07,05,14,09,9.60
2011,07,05,14,10,9.60
2011,07,05,14,11,11.30
2011,07,05,14,12,14.50
2011,07,05,14,13,11.30
2011,07,05,14,14,12.90
2011,07,05,14,15,8.10
2011,07,05,14,16,9.60
2011,07,05,14,17,9.60
2011,07,05,14,18,9.60
2011,07,05,14,19,9.60
2011,07,05,14,20,14.50
2011,07,05,14,21,9.60
2011,07,05,14,22,9.60
2011,07,05,14,23,8.10
2011,07,05,14,24,8.10
2011,07,05,14,25,6.40
2011,07,05,14,26,8.10
2011,07,05,14,27,6.40
2011,07,05,14,28,6.40
2011,07,05,14,29,6.40
2011,07,05,14,30,9.60
2011,07,05,14,31,6.40
2011,07,05,14,32,6.40
2011,07,05,14,33,4.80
2011,07,05,14,34,6.40
2011,07,05,14,35,8.10
2011,07,05,14,36,6.40
2011,07,05,14,37,8.10
2011,07,05,14,38,8.10
2011,07,05,14,39,8.10
2011,07,05,14,40,6.40
2011,07,05,14,41,8.10
2011,07,05,14,42,9.60
2011,07,05,14,43,6.40
2011,07,05,14,44,4.80
2011,07,05,14,45,6.40
2011,07,05,14,46,4.80
2011,07,05,14,47,6.40
2011,07,05,14,48,8.10
2011,07,05,14,49,6.40
2011,07,05,14,50,6.40
2011,07,05,14,51,6.40
2011,07,05,14,52,3.20
2011,07,05,14,53,6.40
2011,07,05,14,54,4.80
2011,07,05,14,55,8.10
2011,07,05,14,56,9.60
2011,07,05,14,57,9.60
2011,07,05,14,58,11.30
2011,07,05,14,59,9.60
2011,07,05,15,00,14.50
2011,07,05,15,01,11.30
2011,07,05,15,02,9.60
2011,07,05,15,03,14.50
2011,07,05,15,04,11.30
2011,07,05,15,05,6.40
2011,07,05,15,06,6.40
2011,07,05,15,07,8.10
2011,07,05,15,08,9.60
2011,07,05,15,09,11.30
2011,07,05,15,10,9.60
2011,07,05,15,11,9.60
2011,07,05,15,12,11.30
2011,07,05,15,13,8.10
2011,07,05,15,14,8.10
2011,07,05,15,15,16.10
2011,07,05,15,16,12.90
2011,07,05,15,17,11.30
2011,07,05,15,18,16.10
2011,07,05,15,19,11.30
2011,07,05,15,20,11.30
2011,07,05,15,21,11.30
2011,07,05,15,22,12.90
2011,07,05,15,23,16.10
2011,07,05,15,24,16.10
2011,07,05,15,25,12.90
2011,07,05,15,26,8.10
2011,07,05,15,27,11.30
2011,07,05,15,28,11.30
2011,07,05,15,29,9.60
2011,07,05,15,30,9.60
2011,07,05,15,31,9.60
2011,07,05,15,32,14.50
2011,07,05,15,33,14.50
2011,07,05,15,34,9.60
2011,07,05,15,35,9.60
2011,07,05,15,36,14.50
2011,07,05,15,37,11.30
2011,07,05,15,38,12.90
2011,07,05,15,39,6.40
2011,07,05,15,40,9.60
2011,07,05,15,41,11.30
2011,07,05,15,42,6.40
2011,07,05,15,43,6.40
2011,07,05,15,44,8.10
2011,07,05,15,45,9.60
2011,07,05,15,46,11.30
2011,07,05,15,47,9.60
2011,07,05,15,48,11.30
2011,07,05,15,49,9.60
2011,07,05,15,50,9.60
2011,07,05,15,51,9.60
2011,07,05,15,52,9.60
2011,07,05,15,53,9.60
2011,07,05,15,54,14.50
2011,07,05,15,55,8.10
2011,07,05,15,56,11.30
2011,07,05,15,57,14.50
2011,07,05,15,58,11.30
2011,07,05,15,59,11.30
2011,07,05,16,00,9.60
2011,07,05,16,01,11.30
2011,07,05,16,02,9.60
2011,07,05,16,03,12.90
2011,07,05,16,04,9.60
2011,07,05,16,05,9.60
2011,07,05,16,06,9.60
2011,07,05,16,07,6.40
2011,07,05,16,08,14.50
2011,07,05,16,09,8.10
2011,07,05,16,10,6.40
2011,07,05,16,11,8.10
2011,07,05,16,12,9.60
2011,07,05,16,13,6.40
2011,07,05,16,14,8.10
2011,07,05,16,15,8.10
2011,07,05,16,16,6.40
2011,07,05,16,17,6.40
2011,07,05,16,18,12.90
2011,07,05,16,19,9.60
2011,07,05,16,20,11.30
2011,07,05,16,21,8.10
2011,07,05,16,22,9.60
2011,07,05,16,23,6.40
2011,07,05,16,24,9.60
2011,07,05,16,25,6.40
2011,07,05,16,26,4.80
2011,07,05,16,27,4.80
2011,07,05,16,28,6.40
2011,07,05,16,29,8.10
2011,07,05,16,30,4.80
2011,07,05,16,31,6.40
2011,07,05,16,32,6.40
2011,07,05,16,33,8.10
2011,07,05,16,34,8.10
2011,07,05,16,35,6.40
2011,07,05,16,36,6.40
2011,07,05,16,37,4.80
2011,07,05,16,38,4.80
2011,07,05,16,39,6.40
2011,07,05,16,40,6.40
2011,07,05,16,41,6.40
2011,07,05,16,42,4.80
2011,07,05,16,43,8.10
2011,07,05,16,44,8.10
2011,07,05,16,45,6.40
2011,07,05,16,46,4.80
2011,07,05,16,47,8.10
2011,07,05,16,48,8.10
2011,07,05,16,49,8.10
2011,07,05,16,50,8.10
2011,07,05,16,51,9.60
2011,07,05,16,52,8.10
2011,07,05,16,53,14.50
2011,07,05,16,54,12.90
2011,07,05,16,55,9.60
2011,07,05,16,56,6.40
2011,07,05,16,57,11.30
2011,07,05,16,58,11.30
2011,07,05,16,59,9.60
2011,07,05,17,00,9.60
2011,07,05,17,01,9.60
2011,07,05,17,02,8.10
2011,07,05,17,03,8.10
2011,07,05,17,04,14.50
2011,07,05,17,05,14.50
2011,07,05,17,06,8.10
2011,07,05,17,07,8.10
2011,07,05,17,08,9.60
2011,07,05,17,09,8.10
2011,07,05,17,10,9.60
2011,07,05,17,11,6.40
2011,07,05,17,12,8.10
2011,07,05,17,13,6.40
2011,07,05,17,14,6.40
2011,07,05,17,15,8.10
2011,07,05,17,16,9.60
2011,07,05,17,17,12.90
2011,07,05,17,18,9.60
2011,07,05,17,19,9.60
2011,07,05,17,20,9.60
2011,07,05,17,21,11.30
2011,07,05,17,22,14.50
2011,07,05,17,23,14.50
2011,07,05,17,24,9.60
2011,07,05,17,25,6.40
2011,07,05,17,26,9.60
2011,07,05,17,27,9.60
2011,07,05,17,28,6.40
2011,07,05,17,29,8.10
2011,07,05,17,30,9.60
2011,07,05,17,31,9.60
2011,07,05,17,32,9.60
2011,07,05,17,33,8.10
2011,07,05,17,34,8.10
2011,07,05,17,35,8.10
2011,07,05,17,36,6.40
2011,07,05,17,37,8.10
2011,07,05,17,38,8.10
2011,07,05,17,39,8.10
2011,07,05,17,40,9.60
2011,07,05,17,41,8.10
2011,07,05,17,42,6.40
2011,07,05,17,43,6.40
2011,07,05,17,44,8.10
2011,07,05,17,45,8.10
2011,07,05,17,46,4.80
2011,07,05,17,47,8.10
2011,07,05,17,48,8.10
2011,07,05,17,49,4.80
2011,07,05,17,50,6.40
2011,07,05,17,51,3.20
2011,07,05,17,52,6.40
2011,07,05,17,53,8.10
2011,07,05,17,54,9.60
2011,07,05,17,55,6.40
2011,07,05,17,56,8.10
2011,07,05,17,57,4.80
2011,07,05,17,58,4.80
2011,07,05,17,59,6.40
2011,07,05,18,00,3.20
2011,07,05,18,01,4.80
2011,07,05,18,02,4.80
2011,07,05,18,03,6.40
2011,07,05,18,04,3.20
2011,07,05,18,05,4.80
2011,07,05,18,06,6.40
2011,07,05,18,07,4.80
2011,07,05,18,08,8.10
2011,07,05,18,09,8.10
2011,07,05,18,10,8.10
2011,07,05,18,11,11.30
2011,07,05,18,12,8.10
2011,07,05,18,13,12.90
2011,07,05,18,14,9.60
2011,07,05,18,15,4.80
2011,07,05,18,16,8.10
2011,07,05,18,17,6.40
2011,07,05,18,18,4.80
2011,07,05,18,19,4.80
2011,07,05,18,20,3.20
2011,07,05,18,21,3.20
2011,07,05,18,22,3.20
2011,07,05,18,23,6.40
2011,07,05,18,24,9.60
2011,07,05,18,25,8.10
2011,07,05,18,26,9.60
2011,07,05,18,27,8.10
2011,07,05,18,28,8.10
2011,07,05,18,29,9.60
2011,07,05,18,30,8.10
2011,07,05,18,31,6.40
2011,07,05,18,32,4.80
2011,07,05,18,33,3.20
2011,07,05,18,34,4.80
2011,07,05,18,35,4.80
2011,07,05,18,36,4.80
2011,07,05,18,37,8.10
2011,07,05,18,38,8.10
2011,07,05,18,39,4.80
2011,07,05,18,40,4.80
2011,07,05,18,41,4.80
2011,07,05,18,42,6.40
2011,07,05,18,43,4.80
2011,07,05,18,44,8.10
2011,07,05,18,45,8.10
2011,07,05,18,46,4.80
2011,07,05,18,47,6.40
2011,07,05,18,48,6.40
2011,07,05,18,49,9.60
2011,07,05,18,50,8.10
2011,07,05,18,51,6.40
2011,07,05,18,52,9.60
2011,07,05,18,53,8.10
2011,07,05,18,54,9.60
2011,07,05,18,55,9.60
2011,07,05,18,56,4.80
2011,07,05,18,57,3.20
2011,07,05,18,58,4.80
2011,07,05,18,59,6.40
2011,07,05,19,00,6.40
2011,07,05,19,01,4.80
2011,07,05,19,02,3.20
2011,07,05,19,03,4.80
2011,07,05,19,04,3.20
2011,07,05,19,05,3.20
2011,07,05,19,06,3.20
2011,07,05,19,07,3.20
2011,07,05,19,08,3.20
2011,07,05,19,09,1.60
2011,07,05,19,10,3.20
2011,07,05,19,11,3.20
2011,07,05,19,12,3.20
2011,07,05,19,13,3.20
2011,07,05,19,14,4.80
2011,07,05,19,15,3.20
2011,07,05,19,16,3.20
2011,07,05,19,17,4.80
2011,07,05,19,18,4.80
2011,07,05,19,19,8.10
2011,07,05,19,20,3.20
2011,07,05,19,21,4.80
2011,07,05,19,22,3.20
2011,07,05,19,23,1.60
2011,07,05,19,24,3.20
2011,07,05,19,25,3.20
2011,07,05,19,26,1.60
2011,07,05,19,27,3.20
2011,07,05,19,28,1.60
2011,07,05,19,29,4.80
2011,07,05,19,30,3.20
2011,07,05,19,31,1.60
2011,07,05,19,32,1.60
2011,07,05,19,33,3.20
2011,07,05,19,34,1.60
2011,07,05,19,35,3.20
2011,07,05,19,36,6.40
2011,07,05,19,37,4.80
2011,07,05,19,38,4.80
2011,07,05,19,39,4.80
2011,07,05,19,40,6.40
2011,07,05,19,41,3.20
2011,07,05,19,42,3.20
2011,07,05,19,43,3.20
2011,07,05,19,44,4.80
2011,07,05,19,45,1.60
2011,07,05,19,46,1.60
2011,07,05,19,48,3.20
2011,07,05,19,49,1.60
2011,07,05,19,50,1.60
2011,07,05,19,51,1.60
2011,07,05,19,52,3.20
2011,07,05,19,53,3.20
2011,07,05,19,54,3.20
2011,07,05,19,55,3.20
2011,07,05,19,57,1.60
2011,07,05,19,59,1.60
2011,07,05,20,00,1.60
2011,07,05,20,01,3.20
2011,07,05,20,02,3.20
2011,07,05,20,03,3.20
2011,07,05,20,04,3.20
2011,07,05,20,05,1.60
2011,07,05,20,06,1.60
2011,07,05,20,07,3.20
2011,07,05,20,08,1.60
2011,07,05,20,09,1.60
2011,07,05,20,16,3.20
2011,07,05,20,17,1.60
2011,07,05,20,18,1.60
2011,07,05,20,26,1.60
2011,07,05,20,45,1.60
2011,07,05,20,46,1.60
2011,07,05,20,47,1.60
2011,07,05,20,49,1.60
2011,07,05,21,04,1.60
2011,07,05,21,05,1.60
2011,07,05,21,13,1.60
2011,07,05,21,14,1.60
2011,07,05,21,15,1.60
2011,07,05,21,28,1.60
2011,07,05,21,29,3.20
2011,07,05,21,30,1.60
2011,07,05,21,31,1.60
2011,07,05,21,32,1.60
2011,07,05,21,33,1.60
2011,07,05,21,52,1.60
2011,07,05,21,54,1.60
2011,07,05,22,22,1.60
2011,07,05,22,23,1.60
2011,07,05,22,25,1.60
2011,07,05,22,26,1.60
2011,07,05,22,27,1.60
2011,07,05,22,30,1.60
2011,07,05,22,34,3.20
2011,07,05,22,35,3.20
2011,07,05,22,44,1.60
2011,07,05,22,50,1.60
2011,07,05,23,05,1.60
2011,07,05,23,51,1.60
2011,07,05,23,55,1.60
2011,07,05,23,59,1.60
